GAOFEN-1 03

Last updated on Sat Jul 05 2025 00:02:29 GMT+0000 (Coordinated Universal Time)

1 43260U 18031B 25185.61796935 .00000622 00000+0 96027-4 0 9992 2 43260 97.7708 245.8886 0007067 77.2127 282.9873 14.76607368391406
UTC large
Height (km)
Speed (km/s)
/
Latitude / Longitude
Inclination (degrees)
Orbital Period (minutes)
Azimuth
Elevation
Range (km)
Doppler Factor

Next 0 passes for location: London (51.5072 / 0.1276)

Sorry there are no passes over London.